Current weather by "City, St" or "zip code"  
 
Advertise Here

Current Conditions: Bartlesville, Bartlesville Municipal Airport, OK

Partly Cloudy


61.0 F

Last Updated on May 12 2021, 11:53 am CDT
Humidity: 52%
Wind Speed: E 6.9 mph
Barometer 30.37 in
Dewpoint: 43.0 F
Visibility: 10.00 mi
Precip: --
Heat Index: NA
Wind Chill: 60 F
Current conditions at:

Bartlesville, Bartlesville Municipal Airport, OK (KBVO)

Lat: 36.76833 Lon: 96.02611

Local Radar Image active severe weather and emergency alerts image image weather storm and storm spotter reports image weather observation monitoring service image
Local
Radar
Active
Alerts
Storm Reports Obs
Monitoring

Sign-up For Email & Text Message Weather Alert Notification Services


Advertise Here

Observation History for Bartlesville, Bartlesville Municipal Airport, OK


Time Wind
(mph)
Vis
(mi)
Weather Precip (in) Temperature (F) Relative
Humidity
Wind
Chill
(F)
Heat
Index
(F)
Pressure
Air Dwpt altimeter
(in)
sea level
(mb)
Rmks
11:53 am CDT E 6.9 10.00 Partly Cloudy -- 61.0 43.0 52% 60 NA 30.37 1027.9
10:53 am CDT NE 10.4 10.00 Mostly Cloudy -- 58.0 42.1 56% 56 NA 30.37 1028.0
9:53 am CDT E 8.1 10.00 Overcast -- 55.0 42.1 62% 53 NA 30.38 1028.2
8:53 am CDT NE 8.1 10.00 Overcast -- 53.0 42.1 66% 50 NA 30.38 1028.2
7:53 am CDT NE 6.9 10.00 Overcast -- 52.0 43.0 72% 50 NA 30.36 1027.8
6:53 am CDT NE 5.8 10.00 Overcast -- 52.0 44.1 75% 50 NA 30.35 1027.1
5:53 am CDT N 9.2 10.00 Overcast -- 52.0 45.0 77% 49 NA 30.33 1026.4
4:53 am CDT NE 9.2 10.00 Overcast -- 53.0 46.0 77% 50 NA 30.30 1025.4
3:53 am CDT N 8.1 10.00 Overcast -- 53.0 48.0 83% 50 NA 30.28 1024.9
2:53 am CDT N 10.4 10.00 Overcast -- 53.0 48.0 83% 50 NA 30.28 1024.8
1:53 am CDT N 12.7 10.00 Overcast -- 54.0 48.0 80% 50 NA 30.27 1024.6
12:53 am CDT N 8.1 10.00 Mostly Cloudy -- 52.0 46.9 83% 49 NA 30.27 1024.6
11:53 pm CDT N 5.8 10.00 Fair -- 52.0 46.0 80% 50 NA 30.26 1024.2
10:53 pm CDT N 5.8 10.00 Mostly Cloudy -- 54.0 45.0 72% 53 NA 30.26 1024.2
9:53 pm CDT N 6.9 10.00 Overcast -- 55.0 44.1 67% 53 NA 30.25 1023.8
8:53 pm CDT N 4.6 10.00 Overcast -- 56.0 44.1 65% 55 NA 30.23 1023.1
7:53 pm CDT NE 6.9 10.00 Overcast -- 58.0 43.0 58% 57 NA 30.20 1022.2
6:53 pm CDT NE 8.1 10.00 Overcast -- 59.0 45.0 60% 58 NA 30.19 1022.0
5:53 pm CDT NE 10.4 10.00 Overcast -- 60.0 45.0 58% 58 NA 30.18 1021.4
4:53 pm CDT NE 9.2 G 28.8 10.00 Overcast -- 61.0 43.0 52% 60 NA 30.15 1020.6
3:53 pm CDT E 11.5 G 20.7 10.00 Overcast -- 60.0 44.1 56% 58 NA 30.15 1020.5
2:53 pm CDT NE 13.8 G 19.6 10.00 Overcast -- 58.0 45.0 62% 55 NA 30.18 1021.6
1:53 pm CDT E 5.8 10.00 Overcast -- 57.0 46.9 69% 56 NA 30.20 1022.4
12:53 pm CDT NE 4.6 10.00 Overcast -- 55.0 46.9 74% 54 NA 30.22 1023.0

Regional Weather Observation


INDEPENDENCE, KS (KIDP)

Mostly Cloudy
61.0 F

Coffeyville, Coffeyville Municipal Airport, KS (KCFV)

Mostly Cloudy
61.0 F

William R Pogue Municipal Airport, OK (KOWP)

Fair
64.0 F

Lt. William M. Milliken Airport, KS (K13K)

Partly Cloudy
61.0 F

Tulsa, Tulsa International Airport, OK (KTUL)

Partly Cloudy
62.0 F

El Dorado Captain Jack Thomas Airport, KS (KEQA)

Partly Cloudy
63.0 F
Advertise Here

Advertise Here